DB0TGO-13 Weather Reports


time (UTC)temp
C
wind
direction
speed
KPH
gust
KPH
rain 1hr
cm
rain 24hr
cm
rain mn
cm
humidity
%
barometer
mb
20260831200009 17 240 6.4 0.0 0.00 0.00 0.00 76 1006.3
20260831194509 16 240 6.4 0.0 0.00 0.00 0.00 77 1005.8
20260831193010 16 250 8.0 0.0 0.00 0.00 0.00 77 1005.8
20260831191509 17 250 8.0 0.0 0.00 0.00 0.00 70 1006.0
20260831190010 17 250 17.7 0.0 0.00 0.00 0.00 70 1006.0
20260831184509 19 250 17.7 0.0 0.00 0.00 0.00 70 1006.0
20260831183009 19 250 11.3 0.0 0.00 0.00 0.00 70 1006.0
20260831181509 19 250 11.3 0.0 0.00 0.00 0.00 71 1005.6
20260831180009 19 270 12.9 0.0 0.00 0.00 0.00 71 1005.6
20260831174509 23 270 12.9 0.0 0.00 0.00 0.00 44 1004.6
20260831173010 23 220 16.1 0.0 0.00 0.00 0.00 44 1004.6
20260831171510 24 220 16.1 0.0 0.00 0.00 0.00 44 1004.5
20260831170009 24 220 17.7 0.0 0.00 0.00 0.00 44 1004.5
20260831164509 24 240 16.1 0.0 0.00 0.00 0.00 44 1004.5
20260831163009 24 240 16.1 0.0 0.00 0.00 0.00 44 1004.5
20260831161511 25 240 16.1 0.0 0.00 0.00 0.00 45 1004.7
20260831160010 25 230 19.3 0.0 0.00 0.00 0.00 45 1004.7
20260831154509 25 240 20.9 0.0 0.00 0.00 0.00 46 1004.6
20260831153009 25 240 20.9 0.0 0.00 0.00 0.00 46 1004.6
20260831151509 25 240 20.9 0.0 0.00 0.00 0.00 49 1004.7
20260831150010 25 230 17.7 0.0 0.00 0.00 0.00 49 1004.7
20260831144510 24 230 17.7 0.0 0.00 0.00 0.00 50 1004.8
20260831143009 24 230 17.7 0.0 0.00 0.00 0.00 50 1004.8
20260831141509 25 230 17.7 0.0 0.00 0.00 0.00 48 1005.0
20260831140009 25 230 20.9 0.0 0.00 0.00 0.00 48 1005.0
20260831134510 24 230 20.9 0.0 0.00 0.00 0.00 52 1005.1
20260831133009 24 210 19.3 0.0 0.00 0.00 0.00 52 1005.1
20260831131509 23 220 12.9 0.0 0.00 0.00 0.00 54 1005.2
20260831130009 23 220 12.9 0.0 0.00 0.00 0.00 54 1005.2
20260831124509 23 220 12.9 0.0 0.00 0.00 0.00 58 1005.4
20260831123009 23 220 16.1 0.0 0.00 0.00 0.00 58 1005.4
20260831121509 23 220 16.1 0.0 0.00 0.00 0.00 59 1005.5
20260831120009 23 210 16.1 0.0 0.00 0.00 0.00 59 1005.5
20260831114510 22 210 16.1 0.0 0.00 0.00 0.00 62 1005.6
20260831113010 22 210 11.3 0.0 0.00 0.00 0.00 62 1005.6
20260831111510 21 220 12.9 0.0 0.00 0.00 0.00 66 1005.7
20260831110009 21 220 12.9 0.0 0.00 0.00 0.00 66 1005.7
20260831104509 20 220 12.9 0.0 0.00 0.00 0.00 73 1005.9
20260831103010 20 230 12.9 0.0 0.00 0.00 0.00 73 1005.9
20260831101509 18 230 9.7 0.0 0.00 0.00 0.00 80 1006.0
20260831100009 18 230 9.7 0.0 0.00 0.00 0.00 80 1006.0
20260831094509 16 210 6.4 0.0 0.00 0.00 0.00 89 1006.3
20260831093010 16 210 6.4 0.0 0.00 0.00 0.00 89 1006.3
20260831091510 15 180 8.0 0.0 0.00 0.00 0.00 90 1006.2
20260831090009 15 180 8.0 0.0 0.00 0.00 0.00 90 1006.2
20260831084509 15 210 8.0 0.0 0.00 0.00 0.00 88 1006.3
20260831083010 15 210 8.0 0.0 0.00 0.00 0.00 88 1006.3
20260831081509 15 210 8.0 0.0 0.00 0.00 0.00 85 1006.1
20260831080010 15 220 8.0 0.0 0.00 0.00 0.00 85 1006.1
20260831074510 17 220 8.0 0.0 0.00 0.00 0.00 74 1005.9
20260831073009 17 180 6.4 0.0 0.00 0.00 0.00 74 1005.9
20260831071509 17 130 3.2 0.0 0.00 0.00 0.00 71 1005.5
20260831070009 17 130 3.2 0.0 0.00 0.00 0.00 71 1005.5
20260831064509 16 130 3.2 0.0 0.00 0.00 0.00 78 1005.6
20260831063010 16 50 1.6 0.0 0.00 0.00 0.00 78 1005.6
20260831060009 16 140 4.8 0.0 0.00 0.00 0.00 73 1005.6
20260831054510 15 110 1.6 0.0 0.00 0.00 0.00 79 1005.9
20260831053010 15 110 1.6 0.0 0.00 0.00 0.00 79 1005.9
20260831051510 15 110 1.6 0.0 0.00 0.00 0.00 79 1005.6
20260831050009 15 140 4.8 0.0 0.00 0.00 0.00 79 1005.6
20260831044510 15 160 3.2 0.0 0.00 0.00 0.00 77 1006.1
20260831043009 15 160 3.2 0.0 0.00 0.00 0.00 77 1006.1
20260831041510 13 180 1.6 0.0 0.00 0.00 0.00 85 1006.3
20260831040010 13 180 1.6 0.0 0.00 0.00 0.00 85 1006.3
20260831034510 15 180 1.6 0.0 0.00 0.00 0.00 81 1006.3
20260831033009 15 170 1.6 0.0 0.00 0.00 0.00 81 1006.3
20260831031509 16 170 1.6 0.0 0.00 0.00 0.00 77 1006.4
20260831030009 16 190 4.8 0.0 0.00 0.00 0.00 77 1006.4
20260830204510 20 250 4.8 0.0 0.00 0.00 0.00 61 1007.2
20260830203009 20 260 3.2 0.0 0.00 0.00 0.00 61 1007.2
20260830201509 21 260 3.2 0.0 0.00 0.00 0.00 59 1007.0